Palapa B2P

operational
NORAD ID: 17706 Int'l Des: 1987-029 Owner: PER Country: ID
HEOCIRCULAR

关于 Palapa B2P

正在加载描述...

实时位置

正在加载3D地球...

即将过境

高度历史

Altitude vs Time

uPlot chart will show altitude changes over time

两行轨道根数

1 17706U 87029A 26062.60587963 -.00000375 00000-0 00000-0 0 9993
2 17706 14.4132 348.9760 0002982 6.7018 149.5808 0.99914781 41477
Epoch: Mar 3, 2026 • Age: 32 hours

当前状态

高度 35878.7 km
速度 3.07 km/s
星下点 12.64°N, 124.09°E
发射日期 Mar 20, 1987
运行时间 38.9 years
类型 other

技术详情

分类 Payload
质量 660.00 kg
干质量 500.00 kg
总质量 1203.00 kg
长度 6.90 m
直径 2.20 m
跨度 6.90 m
形状 Cyl
制造商 HSES
平台类型 HS-376
阶段状态 Unknown Active Status
所有者/国家 PER/ID

大型星座

Loading constellations...